When you browse on this site, cookies collect data to enhance your experience and personalize the content and advertising you see.
Visit our Privacy Policy to learn more. By continuing to use the site, you agree to this use of cookies and data.

Hourly Weather Petrovka

Today, 14 August, Friday

Time Temperature Precipitation Wind Pressure Humidity
00:00 +11°C° 0.1 mm 3 mps 742 mmHg 93%
01:00 +11°C° 0.1 mm 3 mps 742 mmHg 94%
02:00 +11°C° 0 mm 3 mps 743 mmHg 97%
03:00 +11°C° 0.1 mm 3 mps 743 mmHg 96%
04:00 +11°C° 0.1 mm 3 mps 743 mmHg 94%
05:00 +10°C° 0.1 mm 3 mps 743 mmHg 93%
06:00 +11°C° 0 mm 3 mps 743 mmHg 87%
07:00 +12°C° 0 mm 4 mps 743 mmHg 81%
08:00 +14°C° 0 mm 4 mps 743 mmHg 75%
09:00 +15°C° 0.1 mm 4 mps 743 mmHg 70%
10:00 +17°C° 0.1 mm 4 mps 743 mmHg 65%
11:00 +17°C° 0.1 mm 4 mps 743 mmHg 60%
12:00 +17°C° 0.1 mm 4 mps 743 mmHg 61%
13:00 +17°C° 0.1 mm 4 mps 743 mmHg 62%
14:00 +17°C° 0.1 mm 4 mps 743 mmHg 63%
15:00 +15°C° 0 mm 4 mps 743 mmHg 66%
16:00 +16°C° 0 mm 3 mps 743 mmHg 69%
17:00 +14°C° 0 mm 3 mps 743 mmHg 72%
18:00 +14°C° 0 mm 2 mps 743 mmHg 77%
19:00 +13°C° 0 mm 2 mps 743 mmHg 82%
20:00 +10°C° 0 mm 2 mps 744 mmHg 86%
21:00 +10°C° 0 mm 2 mps 744 mmHg 88%
22:00 +10°C° 0 mm 2 mps 744 mmHg 89%
23:00 +9°C° 0 mm 2 mps 744 mmHg 91%

Tomorrow, 15 August, Saturday

Time Temperature Precipitation Wind Pressure Humidity
00:00 +9°C° 0 mm 2 mps 744 mmHg 92%
01:00 +8°C° 0 mm 2 mps 744 mmHg 92%
02:00 +8°C° 0 mm 2 mps 745 mmHg 93%
03:00 +8°C° 0 mm 2 mps 745 mmHg 93%
04:00 +8°C° 0 mm 2 mps 745 mmHg 93%
05:00 +8°C° 0 mm 2 mps 745 mmHg 93%
06:00 +10°C° 0 mm 2 mps 745 mmHg 86%
07:00 +13°C° 0 mm 2 mps 745 mmHg 79%
08:00 +15°C° 0 mm 2 mps 745 mmHg 72%
09:00 +16°C° 0 mm 2 mps 745 mmHg 67%
10:00 +17°C° 0 mm 2 mps 745 mmHg 62%
11:00 +19°C° 0 mm 3 mps 745 mmHg 56%
12:00 +19°C° 0 mm 3 mps 745 mmHg 56%
13:00 +19°C° 0 mm 3 mps 745 mmHg 55%
14:00 +20°C° 0 mm 3 mps 745 mmHg 55%
15:00 +19°C° 0.2 mm 3 mps 744 mmHg 62%
16:00 +18°C° 0.2 mm 2 mps 744 mmHg 70%
17:00 +17°C° 0.2 mm 2 mps 744 mmHg 77%
18:00 +16°C° 0.1 mm 2 mps 744 mmHg 80%
19:00 +15°C° 0.1 mm 2 mps 744 mmHg 83%
20:00 +14°C° 0.1 mm 1 mps 744 mmHg 86%
21:00 +14°C° 0.3 mm 1 mps 744 mmHg 88%
22:00 +13°C° 0.3 mm 1 mps 744 mmHg 90%
23:00 +13°C° 0.3 mm 1 mps 744 mmHg 92%

Day after tomorrow, 16 August, Sunday

Time Temperature Precipitation Wind Pressure Humidity
00:00 +13°C° 0.5 mm 1 mps 743 mmHg 93%
01:00 +13°C° 0.5 mm 1 mps 743 mmHg 94%
02:00 +13°C° 0.5 mm 1 mps 743 mmHg 96%
03:00 +12°C° 0 mm 1 mps 743 mmHg 96%
04:00 +12°C° 0 mm 1 mps 743 mmHg 96%
05:00 +10°C° 0 mm 0 mps 742 mmHg 96%
06:00 +12°C° 0 mm 0 mps 742 mmHg 92%
07:00 +14°C° 0 mm 0 mps 743 mmHg 87%
08:00 +16°C° 0 mm 0 mps 743 mmHg 83%
09:00 +19°C° 0 mm 1 mps 743 mmHg 76%
10:00 +20°C° 0 mm 1 mps 742 mmHg 68%
11:00 +21°C° 0 mm 1 mps 742 mmHg 61%
12:00 +21°C° 0 mm 2 mps 742 mmHg 59%
13:00 +23°C° 0 mm 2 mps 742 mmHg 57%
14:00 +23°C° 0 mm 2 mps 742 mmHg 56%
15:00 +23°C° 0 mm 2 mps 742 mmHg 61%
16:00 +23°C° 0 mm 2 mps 741 mmHg 66%
17:00 +23°C° 0 mm 2 mps 741 mmHg 71%
18:00 +20°C° 0 mm 2 mps 741 mmHg 77%
19:00 +18°C° 0 mm 2 mps 741 mmHg 84%
20:00 +17°C° 0 mm 2 mps 741 mmHg 90%
21:00 +16°C° 0 mm 2 mps 741 mmHg 91%
22:00 +16°C° 0 mm 3 mps 741 mmHg 93%
23:00 +16°C° 0 mm 3 mps 741 mmHg 94%

17 August, Monday

Time Temperature Precipitation Wind Pressure Humidity
00:00 +14°C° 0 mm 3 mps 741 mmHg 94%
01:00 +14°C° 0 mm 3 mps 741 mmHg 94%
02:00 +14°C° 0 mm 3 mps 741 mmHg 94%
03:00 +14°C° 0 mm 3 mps 741 mmHg 94%
04:00 +14°C° 0 mm 3 mps 740 mmHg 94%
05:00 +14°C° 0 mm 3 mps 740 mmHg 93%
06:00 +15°C° 0.1 mm 4 mps 740 mmHg 90%
07:00 +17°C° 0.1 mm 4 mps 740 mmHg 88%
08:00 +19°C° 0.1 mm 4 mps 741 mmHg 85%
09:00 +20°C° 0.2 mm 4 mps 740 mmHg 78%
10:00 +22°C° 0.2 mm 5 mps 740 mmHg 72%
11:00 +23°C° 0.2 mm 5 mps 740 mmHg 66%
12:00 +23°C° 0.6 mm 5 mps 740 mmHg 69%
13:00 +22°C° 0.6 mm 4 mps 740 mmHg 73%
14:00 +22°C° 0.6 mm 4 mps 740 mmHg 77%
15:00 +22°C° 0.2 mm 3 mps 740 mmHg 78%
16:00 +22°C° 0.2 mm 3 mps 740 mmHg 79%
17:00 +22°C° 0.2 mm 3 mps 740 mmHg 79%
18:00 +20°C° 0 mm 2 mps 740 mmHg 83%
19:00 +19°C° 0 mm 2 mps 740 mmHg 86%
20:00 +17°C° 0 mm 2 mps 741 mmHg 90%
21:00 +16°C° 0 mm 1 mps 741 mmHg 90%
22:00 +16°C° 0 mm 1 mps 741 mmHg 90%
23:00 +15°C° 0 mm 1 mps 741 mmHg 89%

18 August, Tuesday

Time Temperature Precipitation Wind Pressure Humidity
00:00 +14°C° 0 mm 1 mps 741 mmHg 88%
01:00 +14°C° 0 mm 1 mps 741 mmHg 87%
02:00 +13°C° 0 mm 1 mps 741 mmHg 87%
03:00 +13°C° 0 mm 1 mps 741 mmHg 86%
04:00 +14°C° 0 mm 1 mps 741 mmHg 85%
05:00 +14°C° 0 mm 1 mps 741 mmHg 84%
06:00 +15°C° 0 mm 1 mps 741 mmHg 80%
07:00 +18°C° 0 mm 1 mps 741 mmHg 76%
08:00 +17°C° 0 mm 0 mps 741 mmHg 72%
09:00 +20°C° 0 mm 1 mps 741 mmHg 68%
10:00 +22°C° 0 mm 1 mps 741 mmHg 64%
11:00 +23°C° 0 mm 1 mps 741 mmHg 60%
12:00 +23°C° 0 mm 1 mps 741 mmHg 56%
13:00 +24°C° 0 mm 1 mps 740 mmHg 53%
14:00 +24°C° 0 mm 1 mps 740 mmHg 49%
15:00 +24°C° 0 mm 1 mps 740 mmHg 53%
16:00 +23°C° 0 mm 1 mps 740 mmHg 57%
17:00 +23°C° 0 mm 1 mps 740 mmHg 61%
18:00 +21°C° 0 mm 1 mps 740 mmHg 64%
19:00 +19°C° 0 mm 1 mps 740 mmHg 66%
20:00 +16°C° 0 mm 1 mps 740 mmHg 69%
21:00 +16°C° 0 mm 1 mps 740 mmHg 71%
22:00 +15°C° 0 mm 1 mps 740 mmHg 73%
23:00 +15°C° 0 mm 1 mps 740 mmHg 75%

19 August, Wednesday

Time Temperature Precipitation Wind Pressure Humidity
00:00 +14°C° 0 mm 1 mps 740 mmHg 77%
01:00 +14°C° 0 mm 2 mps 740 mmHg 80%
02:00 +14°C° 0 mm 2 mps 740 mmHg 83%
03:00 +14°C° 0 mm 2 mps 740 mmHg 84%
04:00 +14°C° 0 mm 2 mps 740 mmHg 85%
05:00 +14°C° 0 mm 2 mps 740 mmHg 87%
06:00 +16°C° 0 mm 2 mps 740 mmHg 81%
07:00 +18°C° 0 mm 2 mps 740 mmHg 76%
08:00 +19°C° 0 mm 3 mps 740 mmHg 70%
09:00 +21°C° 0 mm 3 mps 740 mmHg 66%
10:00 +22°C° 0 mm 3 mps 740 mmHg 62%
11:00 +24°C° 0 mm 3 mps 740 mmHg 58%
12:00 +25°C° 0 mm 3 mps 740 mmHg 57%
13:00 +25°C° 0 mm 3 mps 739 mmHg 56%
14:00 +26°C° 0 mm 4 mps 739 mmHg 55%
15:00 +25°C° 0 mm 3 mps 739 mmHg 59%
16:00 +25°C° 0 mm 3 mps 739 mmHg 64%
17:00 +24°C° 0 mm 2 mps 739 mmHg 68%
18:00 +23°C° 0 mm 2 mps 738 mmHg 72%
19:00 +20°C° 0 mm 2 mps 738 mmHg 76%
20:00 +18°C° 0 mm 2 mps 738 mmHg 80%
21:00 +18°C° 0 mm 2 mps 738 mmHg 82%
22:00 +18°C° 0 mm 3 mps 738 mmHg 84%
23:00 +17°C° 0 mm 3 mps 738 mmHg 87%
Show more